TimeEDT,TemperatureF,Dew PointF,Humidity,Sea Level PressureIn,VisibilityMPH,Wind Direction,Wind SpeedMPH,Gust SpeedMPH,PrecipitationIn,Events,Conditions,WindDirDegrees,DateUTC
12:56 AM,48.9,37.0,64,29.78,-9999.0,Calm,Calm,-,N/A,,Unknown,0,2013-05-16 04:56:00
1:56 AM,48.0,36.0,63,29.80,-9999.0,NNW,6.9,-,N/A,,Unknown,330,2013-05-16 05:56:00
2:56 AM,45.0,36.0,71,29.81,-9999.0,Calm,Calm,-,N/A,,Unknown,0,2013-05-16 06:56:00
3:56 AM,43.0,35.1,74,29.83,-9999.0,Calm,Calm,-,N/A,,Unknown,0,2013-05-16 07:56:00
4:56 AM,44.1,35.1,71,29.85,-9999.0,NE,3.5,-,N/A,,Unknown,40,2013-05-16 08:56:00
5:56 AM,43.0,36.0,76,29.88,-9999.0,Calm,Calm,-,N/A,,Unknown,0,2013-05-16 09:56:00
6:56 AM,43.0,36.0,76,29.91,-9999.0,North,5.8,-,N/A,,Unknown,350,2013-05-16 10:56:00
7:56 AM,45.0,36.0,71,29.93,-9999.0,NNW,9.2,-,N/A,,Unknown,340,2013-05-16 11:56:00
8:56 AM,46.0,36.0,68,29.96,-9999.0,NNE,12.7,-,N/A,,Unknown,30,2013-05-16 12:56:00
9:56 AM,45.0,35.1,68,29.99,-9999.0,NNE,15.0,-,N/A,,Unknown,30,2013-05-16 13:56:00
10:56 AM,45.0,36.0,71,30.01,-9999.0,North,9.2,-,N/A,,Unknown,10,2013-05-16 14:56:00
11:56 AM,46.0,36.0,68,30.02,-9999.0,NW,12.7,-,N/A,,Unknown,320,2013-05-16 15:56:00
12:56 PM,46.0,35.1,66,30.04,-9999.0,NNW,15.0,-,N/A,,Unknown,330,2013-05-16 16:56:00
1:56 PM,46.9,35.1,63,30.05,-9999.0,NNW,12.7,-,N/A,,Unknown,330,2013-05-16 17:56:00
2:56 PM,45.0,36.0,71,30.06,-9999.0,NE,11.5,-,N/A,,Unknown,40,2013-05-16 18:56:00
3:56 PM,44.1,37.0,76,30.06,-9999.0,NE,12.7,-,N/A,,Unknown,40,2013-05-16 19:56:00
4:56 PM,44.1,36.0,73,30.06,-9999.0,NE,13.8,-,N/A,,Unknown,50,2013-05-16 20:56:00
5:56 PM,44.1,36.0,73,30.07,-9999.0,NE,12.7,-,N/A,,Unknown,50,2013-05-16 21:56:00
6:56 PM,44.1,36.0,73,30.07,-9999.0,NE,13.8,-,N/A,,Unknown,50,2013-05-16 22:56:00
7:56 PM,43.0,36.0,76,30.08,-9999.0,NE,11.5,-,N/A,,Unknown,50,2013-05-16 23:56:00
8:56 PM,42.1,36.0,79,30.09,-9999.0,NE,10.4,-,N/A,,Unknown,50,2013-05-17 00:56:00
9:56 PM,41.0,36.0,82,30.11,-9999.0,NNE,5.8,-,N/A,,Unknown,20,2013-05-17 01:56:00
10:56 PM,39.0,34.0,82,30.12,-9999.0,Calm,Calm,-,N/A,,Unknown,0,2013-05-17 02:56:00
11:56 PM,37.0,32.0,82,30.13,-9999.0,SSW,3.5,-,N/A,,Unknown,200,2013-05-17 03:56:00